Location: Exeidioux
(45.6312°N, 1.6819°E)
Time: 14:18:23
(UTC+00:00)

SeaSat 1 - Pass Details

Date: 03 March 2021
Orbit: 744 x 747 km, 108.0° (Epoch: 15 April)

Event Time Altitude Azimuth Distance (km) Brightness Sun altitude
Rises 19:34:10 0° 24° (NNE) 3,201 5.6 -20.1°
Reaches altitude 10° 19:36:28 10° 20° (NNE) 2,273 4.9 -20.5°
Maximum altitude 19:41:18 56° 303° (WNW) 890 3.1 -21.4°
Drops below altitude 10° 19:46:06 10° 226° (SW) 2,261 5.3 -22.2°
Sets 19:48:23 0° 222° (SW) 3,181 6.1 -22.6°
